Stündliche Wetter 1-e Maya

Heute, 21 Juni, Montag

Zeit Temperatur Niederschläge Wind Luftdruck Luftfeuchtigkeit
00:00 +21°C° 0 mm 1 m/S 755 mmHg 88%
01:00 +18°C° 0 mm 0 m/S 755 mmHg 89%
02:00 +18°C° 0 mm 0 m/S 755 mmHg 90%
03:00 +18°C° 0 mm 0 m/S 756 mmHg 92%
04:00 +18°C° 0 mm 0 m/S 756 mmHg 89%
05:00 +19°C° 0 mm 0 m/S 756 mmHg 87%
06:00 +20°C° 0 mm 0 m/S 756 mmHg 84%
07:00 +24°C° 0 mm 1 m/S 756 mmHg 78%
08:00 +25°C° 0 mm 1 m/S 756 mmHg 71%
09:00 +27°C° 0 mm 1 m/S 756 mmHg 65%
10:00 +28°C° 0 mm 1 m/S 756 mmHg 60%
11:00 +29°C° 0 mm 2 m/S 756 mmHg 54%
12:00 +30°C° 0 mm 2 m/S 756 mmHg 49%
13:00 +30°C° 0 mm 2 m/S 755 mmHg 47%
14:00 +31°C° 0 mm 2 m/S 755 mmHg 46%
15:00 +31°C° 0 mm 2 m/S 755 mmHg 44%
16:00 +30°C° 0 mm 2 m/S 755 mmHg 49%
17:00 +30°C° 0 mm 1 m/S 755 mmHg 54%
18:00 +29°C° 0 mm 1 m/S 755 mmHg 60%
19:00 +27°C° 0 mm 1 m/S 755 mmHg 66%
20:00 +25°C° 0 mm 1 m/S 755 mmHg 73%
21:00 +23°C° 0 mm 1 m/S 755 mmHg 80%
22:00 +23°C° 0 mm 1 m/S 755 mmHg 82%
23:00 +22°C° 0 mm 1 m/S 755 mmHg 84%

Morgen, 22 Juni, Dienstag

Zeit Temperatur Niederschläge Wind Luftdruck Luftfeuchtigkeit
00:00 +19°C° 0 mm 0 m/S 755 mmHg 86%
01:00 +19°C° 0 mm 0 m/S 755 mmHg 88%
02:00 +18°C° 0 mm 0 m/S 755 mmHg 89%
03:00 +18°C° 0 mm 0 m/S 756 mmHg 90%
04:00 +21°C° 0 mm 1 m/S 756 mmHg 87%
05:00 +22°C° 0 mm 1 m/S 756 mmHg 84%
06:00 +23°C° 0 mm 1 m/S 756 mmHg 81%
07:00 +25°C° 0 mm 1 m/S 756 mmHg 74%
08:00 +26°C° 0 mm 1 m/S 756 mmHg 67%
09:00 +28°C° 0 mm 1 m/S 756 mmHg 60%
10:00 +29°C° 0 mm 1 m/S 756 mmHg 55%
11:00 +30°C° 0 mm 1 m/S 756 mmHg 50%
12:00 +32°C° 0 mm 2 m/S 756 mmHg 45%
13:00 +32°C° 0 mm 2 m/S 756 mmHg 43%
14:00 +32°C° 0 mm 2 m/S 756 mmHg 42%
15:00 +32°C° 0 mm 2 m/S 755 mmHg 40%
16:00 +32°C° 0 mm 2 m/S 755 mmHg 45%
17:00 +31°C° 0 mm 2 m/S 755 mmHg 50%
18:00 +31°C° 0 mm 2 m/S 755 mmHg 55%
19:00 +28°C° 0 mm 1 m/S 755 mmHg 62%
20:00 +26°C° 0 mm 1 m/S 755 mmHg 68%
21:00 +22°C° 0 mm 0 m/S 755 mmHg 75%
22:00 +21°C° 0 mm 0 m/S 755 mmHg 77%
23:00 +21°C° 0 mm 0 m/S 755 mmHg 79%

übermorgen, 23 Juni, Mittwoch

Zeit Temperatur Niederschläge Wind Luftdruck Luftfeuchtigkeit
00:00 +20°C° 0 mm 0 m/S 755 mmHg 81%
01:00 +20°C° 0 mm 0 m/S 755 mmHg 82%
02:00 +19°C° 0 mm 0 m/S 756 mmHg 84%
03:00 +19°C° 0 mm 0 m/S 756 mmHg 85%
04:00 +20°C° 0 mm 0 m/S 756 mmHg 83%
05:00 +21°C° 0 mm 0 m/S 756 mmHg 80%
06:00 +22°C° 0 mm 0 m/S 756 mmHg 77%
07:00 +24°C° 0 mm 0 m/S 756 mmHg 71%
08:00 +26°C° 0 mm 0 m/S 756 mmHg 65%
09:00 +28°C° 0 mm 0 m/S 756 mmHg 58%
10:00 +31°C° 0 mm 1 m/S 756 mmHg 53%
11:00 +32°C° 0 mm 1 m/S 756 mmHg 48%
12:00 +33°C° 0 mm 1 m/S 756 mmHg 43%
13:00 +33°C° 0 mm 1 m/S 756 mmHg 42%
14:00 +33°C° 0 mm 1 m/S 755 mmHg 40%
15:00 +34°C° 0 mm 1 m/S 755 mmHg 39%
16:00 +33°C° 0 mm 1 m/S 755 mmHg 44%
17:00 +33°C° 0 mm 1 m/S 755 mmHg 49%
18:00 +32°C° 0 mm 1 m/S 755 mmHg 54%
19:00 +30°C° 0 mm 1 m/S 755 mmHg 61%
20:00 +28°C° 0 mm 1 m/S 755 mmHg 68%
21:00 +25°C° 0 mm 1 m/S 755 mmHg 76%
22:00 +25°C° 0 mm 1 m/S 755 mmHg 78%
23:00 +24°C° 0 mm 1 m/S 755 mmHg 79%

24 Juni, Donnerstag

Zeit Temperatur Niederschläge Wind Luftdruck Luftfeuchtigkeit
00:00 +23°C° 0 mm 1 m/S 755 mmHg 81%
01:00 +23°C° 0 mm 1 m/S 755 mmHg 82%
02:00 +21°C° 0 mm 0 m/S 755 mmHg 83%
03:00 +20°C° 0 mm 0 m/S 755 mmHg 85%
04:00 +21°C° 0 mm 0 m/S 755 mmHg 82%
05:00 +22°C° 0 mm 0 m/S 755 mmHg 80%
06:00 +23°C° 0 mm 0 m/S 755 mmHg 78%
07:00 +27°C° 0 mm 1 m/S 755 mmHg 71%
08:00 +28°C° 0 mm 1 m/S 755 mmHg 64%
09:00 +30°C° 0 mm 1 m/S 755 mmHg 57%
10:00 +31°C° 0 mm 1 m/S 755 mmHg 51%
11:00 +33°C° 0 mm 1 m/S 755 mmHg 46%
12:00 +34°C° 0 mm 1 m/S 755 mmHg 40%
13:00 +34°C° 0 mm 1 m/S 754 mmHg 39%
14:00 +35°C° 0 mm 2 m/S 754 mmHg 38%
15:00 +36°C° 0 mm 2 m/S 754 mmHg 37%
16:00 +35°C° 0 mm 2 m/S 754 mmHg 43%
17:00 +34°C° 0 mm 2 m/S 754 mmHg 49%
18:00 +32°C° 0 mm 2 m/S 754 mmHg 55%
19:00 +30°C° 0 mm 2 m/S 753 mmHg 64%
20:00 +28°C° 0 mm 2 m/S 753 mmHg 72%
21:00 +26°C° 0 mm 1 m/S 753 mmHg 80%
22:00 +25°C° 0 mm 1 m/S 753 mmHg 81%
23:00 +25°C° 0 mm 1 m/S 753 mmHg 83%

25 Juni, Freitag

Zeit Temperatur Niederschläge Wind Luftdruck Luftfeuchtigkeit
00:00 +24°C° 0 mm 1 m/S 753 mmHg 85%
01:00 +24°C° 0 mm 1 m/S 753 mmHg 87%
02:00 +23°C° 0 mm 1 m/S 753 mmHg 89%
03:00 +23°C° 0 mm 1 m/S 753 mmHg 92%
04:00 +24°C° 0 mm 1 m/S 753 mmHg 89%
05:00 +24°C° 0 mm 1 m/S 753 mmHg 87%
06:00 +25°C° 0 mm 1 m/S 753 mmHg 85%
07:00 +27°C° 0 mm 1 m/S 752 mmHg 77%
08:00 +29°C° 0 mm 1 m/S 752 mmHg 70%
09:00 +30°C° 0 mm 1 m/S 752 mmHg 62%
10:00 +32°C° 0 mm 1 m/S 752 mmHg 55%
11:00 +34°C° 0 mm 2 m/S 752 mmHg 49%
12:00 +35°C° 0 mm 2 m/S 752 mmHg 42%
13:00 +35°C° 0 mm 2 m/S 751 mmHg 41%
14:00 +36°C° 0 mm 3 m/S 751 mmHg 40%
15:00 +36°C° 0 mm 3 m/S 751 mmHg 39%
16:00 +34°C° 0.2 mm 3 m/S 751 mmHg 46%
17:00 +33°C° 0.2 mm 3 m/S 750 mmHg 54%
18:00 +31°C° 0.2 mm 3 m/S 750 mmHg 62%
19:00 +27°C° 0.8 mm 3 m/S 750 mmHg 70%
20:00 +24°C° 0.8 mm 3 m/S 750 mmHg 78%
21:00 +19°C° 0.8 mm 2 m/S 750 mmHg 86%
22:00 +19°C° 0 mm 2 m/S 750 mmHg 85%
23:00 +19°C° 0 mm 2 m/S 750 mmHg 84%

26 Juni, Samstag

Zeit Temperatur Niederschläge Wind Luftdruck Luftfeuchtigkeit
00:00 +19°C° 0 mm 2 m/S 750 mmHg 83%
01:00 +20°C° 0 mm 1 m/S 750 mmHg 85%
02:00 +19°C° 0 mm 1 m/S 750 mmHg 87%
03:00 +19°C° 0 mm 1 m/S 750 mmHg 89%
04:00 +20°C° 0.1 mm 1 m/S 749 mmHg 88%
05:00 +21°C° 0.1 mm 1 m/S 749 mmHg 86%
06:00 +22°C° 0.1 mm 1 m/S 749 mmHg 85%
07:00 +24°C° 0 mm 1 m/S 749 mmHg 77%
08:00 +26°C° 0 mm 1 m/S 749 mmHg 69%
09:00 +28°C° 0 mm 1 m/S 749 mmHg 61%
10:00 +29°C° 0 mm 1 m/S 748 mmHg 57%
11:00 +31°C° 0 mm 2 m/S 748 mmHg 53%
12:00 +32°C° 0 mm 2 m/S 748 mmHg 49%
13:00 +34°C° 0 mm 2 m/S 748 mmHg 48%
14:00 +34°C° 0 mm 3 m/S 748 mmHg 47%
15:00 +35°C° 0 mm 3 m/S 747 mmHg 45%
16:00 +34°C° 0 mm 3 m/S 747 mmHg 49%
17:00 +33°C° 0 mm 3 m/S 746 mmHg 53%
18:00 +33°C° 0 mm 3 m/S 746 mmHg 57%
19:00 +28°C° 1 mm 4 m/S 746 mmHg 68%
20:00 +23°C° 1 mm 4 m/S 746 mmHg 79%
21:00 +20°C° 1 mm 5 m/S 746 mmHg 89%
22:00 +19°C° 0 mm 4 m/S 746 mmHg 89%
23:00 +19°C° 0 mm 3 m/S 746 mmHg 88%
Mehr zeigen

Wir brauchen deine Erlaubnis

Meteoprog und unser Service Anbieter werden persönliche Daten aufbewahren, so wie Cookies, Geräte Bezeichnung oder ähnliche Technologien von deinem Gerät und Prozess, so wie Persönliche Daten Inhalte und Werbungen, genauso wie social Media und den Verkehr zu analysieren.

  • Aufbewahrung und/oder Zugang zu deiner Geräte Informationen.

    Cookies, Geräte Bezeichnung oder andere Informationen, können aufbewahrt oder Zugang zu deinem Gerät erhalten, für den Grund, der oben angegeben wird.

  • Personalisierte Werbung und Inhalte, Messungen, Einblick in das Publikum und Produkt Entwicklung.

    Werbungen und Inhalte können personalisiert werden, basierend auf ein Profil. Mehr Daten können besser personalisierte Werbungen und Inhalte hinzufügen. Werbung und Inhalte können gezeigt und gemessen werden. Einblicke über das Publikum, welche die Werbung gesehen haben und den Inhalt, können abgeleitet werden. So wie Daten können genutzt werden, um es zu verbessern oder die Benutzer Erfahrung zu verbessern das System und die Software.

Wenn du “Ich stimme zu” klickst, erlaubst du uns, die Cookies zu benutzen die Geräte Bezeichnung, den Web oder ähnliche Technologien zu benutzen. Deine Settings, können in deinem Gerät bei deinem Browser geändert werden.

Für den bestimmten Zweck, berechtigten Interessen beruhen darauf, mehr als auf den Inhalt. Du kannst mehr darüber in unseren Privaten und Cookie Politik lesen.